QPF
0.04 0.03 0.02 0.01 0.01 0.02 0.02 0.02 0.01 0.00 0.00 0.00 0.00 0.01 0.02 0.03 0.03 0.04 0.03 0.02 0.01 0.01 0.02 0.02 0.02 0.03 0.02 0.01 0.02 0.02 0.02 0.01 0.01 0.01 0.01 0.00 0.01 0.03 0.05 0.03 0.03 0.02 0.02
0.05 0.04 0.02 0.01 0.01 0.01 0.02 0.02 0.01 0.01 0.00 0.01 0.01 0.02 0.01 0.01 0.02 0.03 0.03 0.03 0.02 0.01 0.01 0.01 0.02 0.03 0.02 0.02 0.03 0.02 0.02 0.01 0.01 0.01 0.01 0.01 0.01 0.01 0.02 0.03 0.03 0.02 0.02
0.05 0.04 0.03 0.02 0.02 0.02 0.02 0.02 0.01 0.01 0.01 0.01 0.01 0.02 0.01 0.01 0.01 0.02 0.03 0.03 0.03 0.02 0.01 0.01 0.01 0.02 0.02 0.02 0.03 0.02 0.02 0.01 0.01 0.01 0.01 0.01 0.01 0.01 0.01 0.02 0.03 0.02 0.02
0.05 0.06 0.03 0.02 0.03 0.04 0.04 0.03 0.02 0.02 0.01 0.01 0.01 0.01 0.01 0.01 0.01 0.03 0.04 0.03 0.02 0.02 0.01 0.01 0.00 0.01 0.01 0.02 0.03 0.03 0.02 0.02 0.02 0.01 0.01 0.01 0.01 0.00 0.01 0.02 0.03 0.03 0.02
0.05 0.07 0.05 0.03 0.03 0.04 0.04 0.03 0.02 0.01 0.01 0.01 0.01 0.01 0.01 0.01 0.02 0.03 0.03 0.03 0.03 0.02 0.01 0.01 0.00 0.01 0.02 0.03 0.04 0.03 0.03 0.02 0.02 0.01 0.01 0.01 0.01 0.00 0.01 0.01 0.02 0.03 0.03
0.04 0.06 0.06 0.06 0.05 0.04 0.04 0.02 0.02 0.02 0.02 0.02 0.02 0.01 0.01 0.01 0.02 0.02 0.01 0.02 0.02 0.02 0.02 0.01 0.01 0.01 0.02 0.03 0.02 0.02 0.02 0.02 0.02 0.01 0.01 0.01 0.01 0.01 0.01 0.01 0.01 0.02 0.02
0.02 0.03 0.04 0.05 0.05 0.05 0.05 0.04 0.03 0.03 0.04 0.04 0.03 0.02 0.02 0.02 0.02 0.01 0.01 0.00 0.01 0.01 0.02 0.02 0.01 0.01 0.02 0.01 0.01 0.01 0.01 0.01 0.02 0.01 0.01 0.01 0.00 0.00 0.01 0.01 0.02 0.02 0.03
0.01 0.02 0.03 0.03 0.03 0.03 0.04 0.04 0.04 0.04 0.04 0.03 0.03 0.02 0.01 0.01 0.02 0.02 0.01 0.00 0.00 0.01 0.02 0.03 0.02 0.02 0.02 0.02 0.02 0.01 0.01 0.01 0.01 0.01 0.00 0.00 0.00 0.00 0.00 0.01 0.01 0.02 0.03
0.00 0.00 0.01 0.02 0.03 0.04 0.05 0.04 0.04 0.04 0.03 0.03 0.02 0.02 0.02 0.02 0.02 0.02 0.01 0.01 0.01 0.02 0.04 0.03 0.03 0.03 0.04 0.03 0.02 0.02 0.02 0.02 0.01 0.01 0.01 0.01 0.00 0.00 0.00 0.00 0.01 0.02 0.04
0.00 0.00 0.01 0.01 0.02 0.04 0.06 0.07 0.05 0.03 0.03 0.02 0.01 0.01 0.02 0.02 0.02 0.03 0.03 0.02 0.02 0.02 0.06 0.05 0.04 0.04 0.05 0.04 0.03 0.03 0.03 0.02 0.02 0.02 0.02 0.02 0.01 0.01 0.00 0.00 0.01 0.01 0.03
0.00 0.00 0.00 0.01 0.02 0.03 0.04 0.06 0.08 0.06 0.04 0.03 0.02 0.01 0.01 0.01 0.02 0.02 0.02 0.01 0.01 0.02 0.03 0.04 0.03 0.04 0.05 0.05 0.03 0.02 0.03 0.03 0.03 0.03 0.03 0.03 0.02 0.02 0.01 0.01 0.02 0.02 0.02
0.00 0.00 0.00 0.00 0.01 0.02 0.03 0.03 0.05 0.06 0.06 0.04 0.03 0.02 0.01 0.01 0.01 0.01 0.01 0.01 0.02 0.02 0.02 0.02 0.02 0.02 0.03 0.04 0.04 0.03 0.03 0.04 0.04 0.04 0.04 0.04 0.03 0.03 0.03 0.03 0.03 0.03 0.02
0.01 0.00 0.00 0.00 0.00 0.01 0.03 0.03 0.03 0.03 0.04 0.04 0.03 0.03 0.02 0.02 0.02 0.02 0.02 0.02 0.02 0.02 0.02 0.02 0.02 0.03 0.02 0.03 0.04 0.04 0.03 0.03 0.03 0.04 0.05 0.03 0.02 0.02 0.02 0.02 0.02 0.01 0.01
0.01 0.01 0.00 0.01 0.01 0.01 0.02 0.04 0.03 0.02 0.02 0.02 0.02 0.03 0.03 0.02 0.02 0.03 0.03 0.03 0.03 0.03 0.03 0.03 0.03 0.04 0.03 0.03 0.03 0.03 0.02 0.03 0.04 0.04 0.04 0.04 0.03 0.02 0.01 0.01 0.01 0.01 0.02
0.02 0.02 0.01 0.01 0.02 0.02 0.02 0.02 0.03 0.02 0.02 0.02 0.02 0.02 0.02 0.02 0.02 0.03 0.03 0.03 0.04 0.04 0.03 0.03 0.04 0.03 0.02 0.02 0.02 0.02 0.02 0.02 0.04 0.04 0.04 0.04 0.04 0.03 0.03 0.02 0.02 0.03 0.03
0.02 0.02 0.02 0.02 0.01 0.02 0.02 0.02 0.02 0.02 0.02 0.02 0.02 0.02 0.01 0.01 0.02 0.02 0.02 0.03 0.03 0.04 0.04 0.04 0.05 0.05 0.04 0.03 0.03 0.03 0.02 0.03 0.03 0.04 0.04 0.04 0.04 0.05 0.04 0.04 0.04 0.04 0.03
0.02 0.01 0.01 0.01 0.01 0.01 0.01 0.02 0.01 0.02 0.02 0.02 0.02 0.02 0.02 0.01 0.01 0.01 0.02 0.02 0.02 0.03 0.03 0.03 0.04 0.04 0.04 0.03 0.02 0.02 0.02 0.02 0.02 0.03 0.03 0.03 0.03 0.04 0.03 0.03 0.04 0.04 0.03
0.01 0.01 0.01 0.01 0.01 0.00 0.01 0.01 0.01 0.02 0.02 0.02 0.02 0.02 0.02 0.03 0.03 0.02 0.01 0.01 0.01 0.01 0.02 0.02 0.02 0.02 0.02 0.02 0.02 0.02 0.02 0.02 0.02 0.02 0.02 0.03 0.03 0.03 0.03 0.03 0.03 0.04 0.03
0.00 0.00 0.00 0.00 0.00 0.00 0.01 0.01 0.01 0.02 0.02 0.02 0.02 0.03 0.03 0.03 0.03 0.03 0.01 0.01 0.01 0.02 0.02 0.02 0.02 0.02 0.03 0.03 0.03 0.02 0.02 0.02 0.02 0.02 0.02 0.03 0.03 0.03 0.03 0.02 0.03 0.04 0.04
0.00 0.00 0.00 0.01 0.00 0.01 0.01 0.01 0.01 0.01 0.01 0.02 0.02 0.03 0.03 0.03 0.02 0.02 0.02 0.01 0.02 0.02 0.02 0.02 0.02 0.02 0.03 0.03 0.03 0.03 0.03 0.03 0.03 0.03 0.02 0.03 0.03 0.04 0.03 0.03 0.03 0.04 0.04
0.00 0.00 0.00 0.01 0.01 0.01 0.00 0.01 0.01 0.01 0.01 0.01 0.02 0.02 0.03 0.03 0.04 0.03 0.03 0.02 0.02 0.03 0.03 0.03 0.03 0.03 0.03 0.04 0.04 0.04 0.04 0.04 0.05 0.04 0.04 0.04 0.04 0.05 0.05 0.04 0.04 0.04 0.04
0.00 0.00 0.01 0.01 0.01 0.01 0.01 0.01 0.01 0.01 0.01 0.01 0.01 0.01 0.02 0.03 0.03 0.03 0.03 0.03 0.03 0.03 0.04 0.03 0.03 0.04 0.04 0.05 0.05 0.05 0.06 0.06 0.06 0.06 0.05 0.05 0.05 0.05 0.05 0.05 0.05 0.05 0.05
0.01 0.01 0.01 0.01 0.01 0.01 0.01 0.01 0.01 0.01 0.01 0.01 0.01 0.01 0.01 0.02 0.03 0.03 0.04 0.04 0.04 0.04 0.04 0.04 0.04 0.04 0.04 0.05 0.05 0.06 0.06 0.06 0.06 0.06 0.06 0.05 0.05 0.05 0.04 0.04 0.04 0.03 0.03
0.01 0.01 0.01 0.01 0.01 0.01 0.01 0.01 0.01 0.01 0.01 0.01 0.01 0.01 0.01 0.01 0.01 0.02 0.03 0.03 0.03 0.04 0.04 0.04 0.04 0.04 0.04 0.04 0.05 0.05 0.05 0.05 0.05 0.05 0.05 0.05 0.05 0.04 0.04 0.04 0.03 0.02 0.02
0.01 0.01 0.01 0.01 0.01 0.01 0.01 0.01 0.01 0.01 0.01 0.01 0.01 0.01 0.01 0.01 0.01 0.02 0.02 0.02 0.02 0.03 0.03 0.04 0.05 0.05 0.05 0.05 0.05 0.05 0.06 0.05 0.04 0.04 0.03 0.03 0.04 0.04 0.04 0.04 0.04 0.03 0.02
0.01 0.01 0.01 0.01 0.01 0.01 0.01 0.01 0.01 0.02 0.02 0.02 0.02 0.02 0.02 0.02 0.02 0.02 0.02 0.02 0.02 0.02 0.03 0.04 0.04 0.05 0.04 0.04 0.04 0.04 0.04 0.04 0.03 0.04 0.04 0.03 0.03 0.03 0.04 0.05 0.05 0.04 0.03
MSLP
1015.88 1016.16 1016.44 1016.68 1016.85 1016.95 1016.99 1016.99 1016.97 1016.98 1017.01 1017.07 1017.16 1017.26 1017.35 1017.42 1017.47 1017.51 1017.55 1017.62 1017.71 1017.85 1018.03 1018.22 1018.41 1018.59 1018.75 1018.87 1018.98 1019.09 1019.22 1019.39 1019.61 1019.88 1020.18 1020.48 1020.74 1020.94 1021.06 1021.08 1021.03 1020.93 1020.80
1015.74 1016.01 1016.28 1016.51 1016.68 1016.78 1016.81 1016.80 1016.78 1016.77 1016.79 1016.85 1016.93 1017.03 1017.14 1017.24 1017.34 1017.43 1017.52 1017.63 1017.77 1017.92 1018.10 1018.29 1018.46 1018.63 1018.76 1018.89 1019.00 1019.13 1019.29 1019.50 1019.76 1020.06 1020.39 1020.70 1020.96 1021.16 1021.27 1021.29 1021.23 1021.12 1020.99
1015.72 1015.99 1016.26 1016.47 1016.62 1016.70 1016.71 1016.68 1016.64 1016.61 1016.60 1016.64 1016.71 1016.81 1016.93 1017.06 1017.19 1017.33 1017.47 1017.63 1017.80 1017.99 1018.18 1018.38 1018.55 1018.72 1018.86 1018.99 1019.12 1019.27 1019.46 1019.69 1019.97 1020.29 1020.62 1020.92 1021.18 1021.37 1021.47 1021.48 1021.42 1021.31 1021.18
1015.82 1016.10 1016.35 1016.55 1016.68 1016.73 1016.71 1016.65 1016.58 1016.52 1016.49 1016.50 1016.55 1016.65 1016.77 1016.91 1017.07 1017.24 1017.43 1017.62 1017.83 1018.04 1018.26 1018.47 1018.66 1018.84 1018.99 1019.14 1019.29 1019.47 1019.67 1019.91 1020.20 1020.51 1020.82 1021.11 1021.36 1021.53 1021.63 1021.64 1021.59 1021.49 1021.37
1016.02 1016.31 1016.55 1016.73 1016.83 1016.84 1016.80 1016.71 1016.61 1016.53 1016.47 1016.46 1016.50 1016.59 1016.70 1016.85 1017.02 1017.20 1017.41 1017.62 1017.84 1018.08 1018.31 1018.53 1018.75 1018.94 1019.12 1019.28 1019.46 1019.64 1019.85 1020.09 1020.36 1020.65 1020.94 1021.21 1021.44 1021.60 1021.70 1021.73 1021.70 1021.64 1021.55
1016.30 1016.58 1016.81 1016.97 1017.04 1017.03 1016.97 1016.86 1016.75 1016.65 1016.59 1016.57 1016.59 1016.66 1016.77 1016.90 1017.06 1017.23 1017.42 1017.63 1017.85 1018.08 1018.31 1018.54 1018.77 1018.98 1019.17 1019.35 1019.54 1019.73 1019.94 1020.17 1020.41 1020.67 1020.94 1021.18 1021.39 1021.56 1021.67 1021.73 1021.75 1021.73 1021.69
1016.60 1016.89 1017.10 1017.24 1017.29 1017.27 1017.19 1017.08 1016.97 1016.88 1016.82 1016.80 1016.82 1016.87 1016.96 1017.06 1017.18 1017.32 1017.47 1017.64 1017.83 1018.04 1018.26 1018.48 1018.70 1018.92 1019.12 1019.32 1019.51 1019.70 1019.90 1020.11 1020.33 1020.56 1020.79 1021.01 1021.22 1021.39 1021.53 1021.64 1021.71 1021.75 1021.77
1016.90 1017.17 1017.37 1017.49 1017.53 1017.51 1017.44 1017.35 1017.26 1017.19 1017.15 1017.14 1017.16 1017.20 1017.25 1017.31 1017.38 1017.46 1017.55 1017.67 1017.80 1017.96 1018.15 1018.35 1018.56 1018.77 1018.98 1019.18 1019.37 1019.55 1019.74 1019.92 1020.12 1020.32 1020.53 1020.74 1020.94 1021.13 1021.31 1021.46 1021.59 1021.70 1021.77
1017.15 1017.41 1017.59 1017.70 1017.74 1017.73 1017.68 1017.62 1017.57 1017.54 1017.53 1017.54 1017.55 1017.58 1017.60 1017.61 1017.61 1017.62 1017.64 1017.68 1017.75 1017.86 1018.00 1018.17 1018.36 1018.56 1018.77 1018.97 1019.16 1019.34 1019.51 1019.68 1019.85 1020.03 1020.21 1020.41 1020.62 1020.82 1021.03 1021.23 1021.41 1021.57 1021.70
1017.32 1017.56 1017.74 1017.84 1017.89 1017.90 1017.89 1017.87 1017.87 1017.88 1017.90 1017.92 1017.94 1017.95 1017.93 1017.89 1017.83 1017.77 1017.71 1017.69 1017.69 1017.75 1017.85 1017.99 1018.17 1018.37 1018.57 1018.77 1018.95 1019.12 1019.28 1019.43 1019.58 1019.74 1019.91 1020.09 1020.29 1020.51 1020.74 1020.96 1021.18 1021.38 1021.55
1017.39 1017.63 1017.80 1017.91 1017.97 1018.01 1018.03 1018.07 1018.10 1018.15 1018.20 1018.24 1018.25 1018.23 1018.18 1018.09 1017.98 1017.86 1017.75 1017.67 1017.63 1017.65 1017.73 1017.86 1018.02 1018.22 1018.42 1018.62 1018.80 1018.97 1019.11 1019.25 1019.38 1019.51 1019.66 1019.83 1020.02 1020.23 1020.46 1020.69 1020.93 1021.14 1021.33
1017.37 1017.60 1017.77 1017.89 1017.98 1018.05 1018.11 1018.18 1018.25 1018.33 1018.39 1018.43 1018.44 1018.40 1018.31 1018.19 1018.04 1017.88 1017.74 1017.63 1017.57 1017.58 1017.65 1017.77 1017.95 1018.14 1018.35 1018.55 1018.73 1018.89 1019.02 1019.13 1019.24 1019.35 1019.47 1019.61 1019.78 1019.98 1020.19 1020.42 1020.65 1020.86 1021.05
1017.27 1017.50 1017.67 1017.81 1017.92 1018.02 1018.11 1018.21 1018.30 1018.38 1018.45 1018.48 1018.46 1018.40 1018.29 1018.14 1017.97 1017.80 1017.65 1017.54 1017.50 1017.51 1017.60 1017.74 1017.92 1018.13 1018.34 1018.53 1018.71 1018.85 1018.96 1019.05 1019.13 1019.21 1019.30 1019.42 1019.56 1019.73 1019.92 1020.13 1020.33 1020.54 1020.72
1017.09 1017.32 1017.52 1017.68 1017.81 1017.93 1018.04 1018.14 1018.23 1018.31 1018.35 1018.36 1018.32 1018.24 1018.11 1017.95 1017.78 1017.62 1017.49 1017.41 1017.39 1017.43 1017.54 1017.70 1017.90 1018.11 1018.31 1018.50 1018.65 1018.77 1018.86 1018.92 1018.97 1019.02 1019.08 1019.17 1019.28 1019.42 1019.59 1019.77 1019.96 1020.15 1020.32
1016.84 1017.10 1017.31 1017.49 1017.64 1017.77 1017.88 1017.98 1018.06 1018.11 1018.12 1018.10 1018.03 1017.92 1017.78 1017.63 1017.47 1017.33 1017.23 1017.19 1017.21 1017.29 1017.42 1017.59 1017.79 1017.99 1018.18 1018.34 1018.47 1018.55 1018.60 1018.63 1018.65 1018.67 1018.72 1018.78 1018.88 1019.00 1019.15 1019.32 1019.50 1019.68 1019.86
1016.55 1016.82 1017.05 1017.24 1017.41 1017.54 1017.65 1017.73 1017.78 1017.79 1017.77 1017.71 1017.61 1017.48 1017.34 1017.19 1017.05 1016.95 1016.88 1016.87 1016.92 1017.02 1017.17 1017.34 1017.52 1017.70 1017.85 1017.97 1018.05 1018.09 1018.10 1018.10 1018.10 1018.10 1018.13 1018.19 1018.28 1018.41 1018.56 1018.73 1018.92 1019.12 1019.31
1016.19 1016.48 1016.72 1016.93 1017.10 1017.23 1017.33 1017.38 1017.39 1017.37 1017.31 1017.21 1017.09 1016.95 1016.80 1016.66 1016.55 1016.47 1016.43 1016.44 1016.51 1016.61 1016.74 1016.88 1017.03 1017.15 1017.25 1017.31 1017.34 1017.34 1017.31 1017.28 1017.26 1017.26 1017.30 1017.37 1017.48 1017.62 1017.80 1018.00 1018.22 1018.45 1018.68
1015.76 1016.06 1016.31 1016.52 1016.69 1016.82 1016.89 1016.92 1016.91 1016.85 1016.76 1016.64 1016.50 1016.35 1016.20 1016.07 1015.97 1015.90 1015.87 1015.89 1015.94 1016.02 1016.11 1016.21 1016.29 1016.35 1016.38 1016.38 1016.35 1016.30 1016.25 1016.20 1016.18 1016.19 1016.24 1016.34 1016.49 1016.67 1016.89 1017.14 1017.41 1017.68 1017.96
1015.24 1015.53 1015.78 1016.00 1016.16 1016.27 1016.34 1016.35 1016.31 1016.23 1016.12 1015.98 1015.83 1015.68 1015.54 1015.41 1015.31 1015.25 1015.22 1015.21 1015.23 1015.26 1015.30 1015.32 1015.33 1015.31 1015.27 1015.21 1015.13 1015.05 1014.97 1014.92 1014.91 1014.95 1015.03 1015.17 1015.36 1015.60 1015.87 1016.18 1016.50 1016.83 1017.17
1014.60 1014.88 1015.12 1015.33 1015.48 1015.59 1015.64 1015.64 1015.59 1015.50 1015.39 1015.25 1015.10 1014.95 1014.81 1014.68 1014.58 1014.51 1014.45 1014.41 1014.38 1014.36 1014.32 1014.27 1014.20 1014.11 1014.01 1013.89 1013.77 1013.67 1013.59 1013.55 1013.56 1013.63 1013.75 1013.94 1014.18 1014.47 1014.79 1015.15 1015.52 1015.91 1016.31
1013.84 1014.10 1014.32 1014.51 1014.65 1014.75 1014.79 1014.79 1014.74 1014.66 1014.55 1014.41 1014.27 1014.13 1013.99 1013.87 1013.76 1013.66 1013.57 1013.49 1013.41 1013.32 1013.22 1013.10 1012.97 1012.82 1012.67 1012.51 1012.38 1012.27 1012.20 1012.18 1012.22 1012.32 1012.49 1012.72 1013.00 1013.32 1013.69 1014.09 1014.51 1014.95 1015.40
1012.98 1013.20 1013.39 1013.56 1013.69 1013.78 1013.82 1013.81 1013.77 1013.69 1013.59 1013.47 1013.34 1013.20 1013.07 1012.94 1012.82 1012.70 1012.58 1012.46 1012.33 1012.18 1012.03 1011.86 1011.67 1011.49 1011.31 1011.15 1011.01 1010.91 1010.87 1010.88 1010.95 1011.08 1011.28 1011.54 1011.85 1012.20 1012.59 1013.02 1013.47 1013.94 1014.43
1012.03 1012.21 1012.38 1012.51 1012.63 1012.70 1012.73 1012.73 1012.69 1012.62 1012.52 1012.41 1012.28 1012.15 1012.02 1011.88 1011.74 1011.60 1011.46 1011.30 1011.13 1010.95 1010.76 1010.56 1010.35 1010.16 1009.97 1009.82 1009.70 1009.62 1009.60 1009.64 1009.74 1009.90 1010.12 1010.40 1010.72 1011.09 1011.49 1011.93 1012.39 1012.89 1013.41
1011.06 1011.20 1011.32 1011.43 1011.51 1011.57 1011.59 1011.57 1011.52 1011.45 1011.35 1011.23 1011.11 1010.97 1010.83 1010.68 1010.53 1010.37 1010.20 1010.02 1009.83 1009.63 1009.42 1009.21 1009.00 1008.81 1008.63 1008.50 1008.40 1008.35 1008.35 1008.42 1008.54 1008.72 1008.96 1009.24 1009.57 1009.95 1010.36 1010.80 1011.28 1011.79 1012.33
1010.12 1010.20 1010.28 1010.35 1010.40 1010.42 1010.41 1010.37 1010.30 1010.21 1010.09 1009.96 1009.82 1009.67 1009.51 1009.35 1009.19 1009.01 1008.83 1008.64 1008.44 1008.23 1008.01 1007.80 1007.60 1007.41 1007.25 1007.13 1007.05 1007.02 1007.05 1007.13 1007.26 1007.46 1007.70 1007.99 1008.33 1008.72 1009.14 1009.60 1010.10 1010.63 1011.21
1009.23 1009.27 1009.30 1009.32 1009.32 1009.30 1009.25 1009.16 1009.06 1008.93 1008.78 1008.62 1008.45 1008.28 1008.10 1007.92 1007.74 1007.56 1007.36 1007.16 1006.96 1006.74 1006.53 1006.31 1006.11 1005.93 1005.78 1005.66 1005.58 1005.56 1005.59 1005.67 1005.81 1006.01 1006.27 1006.58 1006.94 1007.34 1007.80 1008.29 1008.83 1009.41 1010.03
Thickness
5692 5689 5686 5684 5682 5680 5677 5674 5672 5670 5668 5666 5664 5662 5660 5658 5657 5654 5652 5651 5649 5648 5648 5648 5647 5648 5647 5646 5646 5645 5643 5641 5638 5639 5639 5641 5641 5641 5642 5642 5642 5642 5643
5687 5684 5681 5679 5677 5674 5672 5670 5667 5665 5663 5662 5660 5657 5655 5653 5652 5649 5647 5646 5644 5643 5642 5642 5642 5643 5642 5642 5641 5640 5639 5639 5636 5634 5633 5634 5635 5635 5635 5635 5636 5637 5637
5681 5678 5675 5673 5670 5668 5666 5665 5662 5660 5658 5656 5654 5652 5650 5649 5647 5645 5643 5641 5639 5638 5638 5638 5638 5638 5637 5637 5636 5635 5635 5635 5633 5630 5628 5628 5628 5628 5628 5628 5629 5630 5631
5675 5672 5668 5666 5665 5663 5661 5660 5657 5655 5652 5650 5648 5647 5645 5644 5642 5640 5638 5636 5634 5634 5633 5634 5634 5633 5633 5633 5632 5631 5630 5628 5626 5624 5623 5621 5621 5622 5621 5620 5620 5622 5623
5669 5665 5662 5661 5660 5658 5656 5654 5652 5649 5647 5645 5642 5641 5640 5638 5637 5635 5633 5631 5630 5629 5629 5629 5629 5630 5630 5630 5629 5627 5625 5622 5620 5618 5616 5615 5615 5614 5614 5614 5614 5614 5616
5662 5659 5657 5655 5653 5652 5650 5649 5646 5643 5641 5639 5637 5635 5633 5633 5632 5631 5629 5626 5624 5623 5622 5623 5623 5624 5624 5624 5624 5624 5623 5619 5616 5614 5612 5611 5611 5611 5610 5609 5607 5606 5607
5656 5654 5651 5649 5647 5646 5645 5642 5639 5637 5634 5632 5630 5628 5626 5626 5626 5625 5623 5621 5618 5617 5616 5615 5617 5617 5616 5616 5617 5618 5617 5617 5616 5613 5610 5609 5609 5609 5606 5604 5603 5602 5602
5650 5648 5646 5643 5641 5639 5637 5634 5632 5630 5627 5625 5623 5621 5619 5619 5620 5619 5617 5614 5612 5611 5610 5609 5608 5609 5610 5609 5609 5609 5609 5610 5610 5610 5609 5608 5608 5607 5605 5603 5601 5599 5598
5644 5642 5640 5638 5635 5633 5630 5628 5625 5623 5620 5618 5616 5614 5612 5612 5612 5612 5610 5607 5605 5604 5604 5604 5603 5603 5604 5603 5602 5601 5602 5603 5604 5604 5604 5604 5603 5602 5600 5597 5593 5591 5590
5639 5637 5634 5632 5629 5627 5624 5621 5619 5617 5614 5612 5609 5607 5605 5604 5605 5604 5602 5599 5597 5597 5597 5597 5597 5597 5597 5596 5595 5594 5594 5595 5596 5596 5596 5596 5595 5595 5594 5592 5590 5586 5584
5633 5630 5627 5625 5623 5620 5617 5614 5612 5610 5607 5604 5602 5599 5598 5597 5596 5595 5594 5592 5590 5589 5589 5589 5589 5590 5590 5590 5589 5588 5589 5589 5588 5587 5586 5586 5586 5586 5586 5586 5585 5583 5581
5625 5622 5619 5617 5615 5613 5609 5606 5604 5602 5598 5596 5593 5591 5590 5589 5588 5587 5586 5585 5584 5581 5581 5581 5581 5581 5581 5581 5580 5581 5581 5580 5578 5577 5576 5576 5576 5576 5577 5578 5578 5578 5578
5617 5613 5611 5609 5606 5604 5602 5599 5596 5593 5590 5587 5585 5582 5581 5580 5580 5580 5578 5577 5576 5574 5573 5573 5572 5572 5572 5571 5572 5572 5571 5569 5568 5567 5567 5567 5567 5568 5568 5568 5568 5569 5569
5608 5605 5603 5600 5598 5596 5594 5591 5588 5585 5582 5579 5577 5574 5572 5571 5571 5570 5569 5567 5566 5564 5563 5563 5563 5562 5561 5561 5561 5560 5560 5560 5559 5558 5558 5558 5558 5558 5558 5558 5557 5558 5557
5600 5597 5594 5592 5589 5587 5585 5582 5580 5578 5576 5573 5570 5567 5564 5563 5564 5563 5561 5559 5557 5555 5554 5552 5550 5549 5549 5549 5549 5549 5549 5550 5550 5549 5549 5548 5548 5548 5548 5549 5548 5548 5547
5591 5588 5585 5582 5580 5577 5575 5573 5572 5570 5569 5567 5564 5561 5559 5558 5557 5556 5554 5551 5549 5547 5544 5541 5540 5539 5539 5538 5538 5538 5539 5539 5540 5540 5539 5539 5539 5539 5539 5539 5539 5538 5539
5583 5580 5577 5574 5571 5568 5565 5562 5560 5559 5559 5557 5555 5553 5551 5550 5548 5546 5544 5541 5539 5537 5533 5532 5531 5530 5529 5529 5528 5528 5529 5529 5530 5530 5530 5530 5530 5531 5530 5530 5530 5529 5530
5575 5573 5569 5566 5563 5559 5556 5553 5551 5548 5546 5545 5545 5543 5542 5540 5538 5536 5533 5530 5527 5526 5524 5523 5522 5522 5521 5521 5520 5520 5521 5521 5521 5521 5521 5521 5521 5521 5521 5521 5521 5521 5521
5567 5563 5560 5557 5554 5550 5547 5544 5542 5539 5537 5535 5533 5533 5532 5530 5528 5526 5523 5520 5518 5516 5515 5514 5513 5513 5512 5512 5513 5512 5513 5513 5513 5512 5512 5512 5512 5512 5512 5513 5512 5512 5512
5558 5556 5552 5548 5544 5541 5538 5535 5532 5529 5526 5525 5524 5523 5521 5519 5517 5515 5513 5511 5508 5507 5506 5505 5505 5504 5504 5504 5504 5504 5504 5504 5504 5503 5503 5503 5504 5504 5504 5505 5504 5504 5504
5548 5546 5543 5538 5535 5532 5529 5526 5523 5520 5517 5516 5515 5514 5513 5510 5508 5506 5504 5502 5500 5499 5497 5497 5497 5497 5496 5496 5495 5495 5495 5495 5495 5495 5495 5495 5495 5495 5496 5496 5496 5496 5496
5538 5535 5532 5528 5526 5523 5520 5518 5515 5512 5510 5508 5506 5505 5505 5502 5500 5498 5495 5494 5492 5491 5489 5488 5488 5488 5488 5487 5487 5486 5486 5486 5486 5486 5486 5486 5487 5488 5488 5488 5487 5488 5488
5529 5526 5523 5520 5517 5515 5512 5509 5507 5504 5502 5500 5499 5497 5495 5493 5491 5489 5487 5485 5483 5482 5481 5480 5479 5478 5478 5478 5478 5478 5478 5478 5478 5478 5477 5478 5479 5479 5479 5479 5479 5480 5480
5519 5516 5514 5511 5508 5506 5503 5501 5499 5497 5495 5493 5491 5489 5487 5485 5483 5481 5478 5476 5474 5473 5472 5471 5470 5469 5469 5469 5469 5469 5469 5470 5470 5470 5470 5470 5470 5470 5470 5471 5471 5472 5473
5509 5507 5504 5501 5499 5497 5495 5493 5491 5489 5487 5485 5483 5481 5478 5476 5474 5472 5470 5468 5466 5464 5463 5462 5462 5461 5461 5461 5460 5461 5461 5461 5461 5461 5461 5461 5462 5462 5462 5462 5463 5464 5464
5500 5498 5495 5493 5490 5488 5486 5484 5483 5481 5478 5477 5474 5472 5470 5468 5465 5463 5461 5459 5457 5455 5454 5453 5453 5452 5452 5451 5451 5451 5451 5452 5452 5452 5452 5452 5452 5452 5452 5453 5454 5454 5455